Date String (YYYY-MM-DD hh:mm:ss) UTC,Instrument flags,absolute air pressure of the measurement (hPa),sample flow rate (lpm),inlet stack bypass flow (lpm),air temperature of the measurement (°C),ambient temperature measured by the external sensor (°C),aerosol sample conditioner tube jacket temperature (°C),OPC LED temperature (°C),internal box temperature (°C),relative humidity of the measurement (%),span deviation,mass concentration of particles derived from Lorenz-Mie calculation of OPC scattering (μg/m³),mass concentration of particles derived from Lorenz-Mie calculation of OPC scattering (μg/m³),mass concentration of particles derived from Lorenz-Mie calculation of OPC scattering (μg/m³)
DateTimeUTC,F1_M11,P_M11,Q1_M11,Q2_M11,T1_M11,T2_M11,T3_M11,T4_M11,T5_M11,U1_M11,ZSPAN_M11,X2_M11,X0_M11,X1_M11
2023-10-14 00:00:00,SystemResetWarning,0833.9,5.00,000.00,029.9,028.6,000.0,038.3,031.5,10.2,0000.0,0001.83,0004.51,0001.31
2023-10-14 00:01:00,SystemResetWarning,0834.0,5.01,000.00,029.9,028.6,000.0,038.3,031.5,10.2,0000.0,0001.87,0004.65,0001.32
2023-10-14 00:02:00,SystemResetWarning,0834.0,5.00,000.00,029.9,028.6,000.0,038.4,031.5,10.2,0000.0,0001.90,0004.80,0001.32
2023-10-14 00:03:00,SystemResetWarning,0834.0,4.99,000.00,029.9,028.6,000.0,038.4,031.5,10.2,0000.0,0001.93,0004.77,0001.33
2023-10-14 00:04:00,SystemResetWarning,0833.9,5.00,000.00,029.9,028.6,000.0,038.4,031.5,10.2,0000.0,0001.96,0005.82,0001.33
2023-10-14 00:05:00,SystemResetWarning,0833.9,5.01,000.00,029.9,028.6,000.0,038.4,031.5,10.2,0000.0,0001.95,0006.73,0001.33
2023-10-14 00:06:00,SystemResetWarning,0834.0,5.01,000.00,029.9,028.6,000.0,038.4,031.5,10.2,0000.0,0001.90,0006.10,0001.32
2023-10-14 00:07:00,SystemResetWarning,0834.0,4.99,000.00,029.9,028.6,000.0,038.4,031.5,10.2,0000.0,0001.95,0006.61,0001.32
2023-10-14 00:08:00,SystemResetWarning,0834.0,4.99,000.00,030.0,028.6,000.0,038.4,031.5,10.3,0000.0,0002.00,0007.57,0001.31
2023-10-14 00:09:00,SystemResetWarning,0834.0,5.00,000.00,030.0,028.7,000.0,038.4,031.5,10.3,0000.0,0002.01,0007.85,0001.31
2023-10-14 00:10:00,SystemResetWarning,0834.0,5.02,000.00,030.0,028.7,000.0,038.4,031.5,10.3,0000.0,0002.02,0008.53,0001.32
2023-10-14 00:11:00,SystemResetWarning,0834.1,5.00,000.00,030.0,028.7,000.0,038.4,031.5,10.3,0000.0,0002.03,0008.23,0001.33
2023-10-14 00:12:00,SystemResetWarning,0834.1,4.99,000.00,030.0,028.7,000.0,038.4,031.5,10.3,0000.0,0002.03,0008.19,0001.33
2023-10-14 00:13:00,SystemResetWarning,0834.1,5.01,000.00,030.0,028.7,000.0,038.4,031.5,10.3,0000.0,0002.00,0008.07,0001.35
2023-10-14 00:14:00,SystemResetWarning,0834.1,5.01,000.00,030.0,028.7,000.0,038.4,031.5,10.4,0000.0,0001.99,0008.11,0001.36
2023-10-14 00:15:00,SystemResetWarning,0834.1,4.99,000.00,030.0,028.7,000.0,038.4,031.6,10.4,0000.0,0001.93,0007.61,0001.36
2023-10-14 00:16:00,SystemResetWarning,0834.1,4.99,000.00,030.0,028.7,000.0,038.4,031.6,10.5,0000.0,0001.96,0006.98,0001.36
2023-10-14 00:17:00,SystemResetWarning,0834.1,5.00,000.00,030.0,028.7,000.0,038.5,031.6,10.5,0000.0,0001.98,0007.50,0001.37
2023-10-14 00:18:00,SystemResetWarning,0834.1,5.01,000.00,030.0,028.7,000.0,038.5,031.6,10.5,0000.0,0001.95,0007.68,0001.38
2023-10-14 00:19:00,SystemResetWarning,0834.1,5.01,000.00,030.0,028.7,000.0,038.5,031.6,10.5,0000.0,0001.94,0007.57,0001.39
2023-10-14 00:20:00,SystemResetWarning,0834.1,4.99,000.00,030.0,028.7,000.0,038.5,031.6,10.5,0000.0,0001.93,0007.86,0001.41
2023-10-14 00:21:00,SystemResetWarning,0834.2,4.99,000.00,030.0,028.7,000.0,038.5,031.5,10.6,0000.0,0001.95,0007.28,0001.42
2023-10-14 00:22:00,SystemResetWarning,0834.2,5.01,000.00,030.0,028.7,000.0,038.5,031.5,10.6,0000.0,0001.93,0006.94,0001.40
2023-10-14 00:23:00,SystemResetWarning,0834.2,5.02,000.00,030.0,028.7,000.0,038.5,031.5,10.5,0000.0,0001.90,0006.92,0001.39
2023-10-14 00:24:00,SystemResetWarning,0834.2,4.99,000.00,030.0,028.7,000.0,038.5,031.6,10.6,0000.0,0001.88,0007.06,0001.37
2023-10-14 00:25:00,SystemResetWarning,0834.3,4.98,000.00,030.0,028.7,000.0,038.5,031.6,10.6,0000.0,0001.85,0007.06,0001.35
2023-10-14 00:26:00,SystemResetWarning,0834.6,5.00,000.00,030.0,028.6,000.0,038.5,031.6,10.6,0000.0,0001.87,0007.05,0001.36
2023-10-14 00:27:00,SystemResetWarning,0834.5,5.01,000.00,030.0,028.6,000.0,038.5,031.6,10.6,0000.0,0001.86,0007.04,0001.36
2023-10-14 00:28:00,SystemResetWarning,0834.6,5.01,000.00,030.0,028.6,000.0,038.5,031.5,10.6,0000.0,0001.85,0006.84,0001.36
2023-10-14 00:29:00,SystemResetWarning,0834.4,4.99,000.00,030.0,028.6,000.0,038.5,031.5,10.6,0000.0,0001.88,0006.60,0001.35
2023-10-14 00:30:00,SystemResetWarning,0834.5,4.99,000.00,030.0,028.6,000.0,038.5,031.5,10.6,0000.0,0001.88,0006.02,0001.35
2023-10-14 00:31:00,SystemResetWarning,0834.4,5.00,000.00,030.0,028.6,000.0,038.5,031.5,10.6,0000.0,0001.88,0005.88,0001.34
2023-10-14 00:32:00,SystemResetWarning,0834.3,5.00,000.00,030.0,028.6,000.0,038.5,031.6,10.6,0000.0,0001.88,0006.08,0001.32
2023-10-14 00:33:00,SystemResetWarning,0834.4,5.01,000.00,030.0,028.6,000.0,038.5,031.6,10.6,0000.0,0001.89,0006.15,0001.32
2023-10-14 00:34:00,SystemResetWarning,0834.3,5.01,000.00,030.0,028.6,000.0,038.5,031.6,10.6,0000.0,0001.91,0006.44,0001.33
2023-10-14 00:35:00,SystemResetWarning,0834.4,5.00,000.00,030.0,028.6,000.0,038.5,031.5,10.6,0000.0,0001.97,0007.37,0001.34
2023-10-14 00:36:00,SystemResetWarning,0834.4,4.99,000.00,030.0,028.6,000.0,038.5,031.5,10.6,0000.0,0001.99,0008.94,0001.34
2023-10-14 00:37:00,SystemResetWarning,0834.4,4.99,000.00,030.0,028.6,000.0,038.5,031.5,10.6,0000.0,0001.99,0009.36,0001.34
2023-10-14 00:38:00,SystemResetWarning,0834.4,5.00,000.00,030.0,028.6,000.0,038.5,031.5,10.7,0000.0,0002.02,0009.52,0001.34
2023-10-14 00:39:00,SystemResetWarning,0834.5,5.00,000.00,030.0,028.6,000.0,038.5,031.5,10.6,0000.0,0002.09,0010.27,0001.35
2023-10-14 00:40:00,SystemResetWarning,0834.5,5.00,000.00,030.0,028.6,000.0,038.5,031.5,10.6,0000.0,0002.14,0011.23,0001.36
2023-10-14 00:41:00,SystemResetWarning,0834.5,5.00,000.00,030.0,028.6,000.0,038.5,031.5,10.6,0000.0,0002.22,0012.90,0001.38
2023-10-14 00:42:00,SystemResetWarning,0834.5,5.01,000.00,030.0,028.6,000.0,038.5,031.5,10.6,0000.0,0002.31,0013.07,0001.39
2023-10-14 00:43:00,SystemResetWarning,0834.7,5.00,000.00,030.0,028.5,000.0,038.5,031.5,10.6,0000.0,0002.38,0014.10,0001.41
2023-10-14 00:44:00,SystemResetWarning,0835.0,5.00,000.00,030.0,028.5,000.0,038.5,031.5,10.7,0000.0,0002.48,0014.42,0001.43
2023-10-14 00:45:00,SystemResetWarning,0835.1,5.00,000.00,030.0,028.5,000.0,038.5,031.4,10.7,0000.0,0002.55,0014.72,0001.44
2023-10-14 00:46:00,SystemResetWarning,0834.8,5.00,000.00,030.0,028.5,000.0,038.5,031.4,10.7,0000.0,0002.56,0014.54,0001.44
2023-10-14 00:47:00,SystemResetWarning,0835.1,5.00,000.00,029.9,028.5,000.0,038.5,031.4,10.7,0000.0,0002.65,0013.87,0001.45
2023-10-14 00:48:00,SystemResetWarning,0835.2,5.00,000.00,029.9,028.5,000.0,038.5,031.4,10.7,0000.0,0002.79,0014.81,0001.46
2023-10-14 00:49:00,SystemResetWarning,0835.1,5.00,000.00,029.9,028.5,000.0,038.5,031.4,10.7,0000.0,0002.81,0015.66,0001.47
2023-10-14 00:50:00,SystemResetWarning,0834.8,5.00,000.00,029.9,028.5,000.0,038.5,031.4,10.8,0000.0,0002.80,0015.77,0001.47
2023-10-14 00:51:00,SystemResetWarning,0834.7,5.00,000.00,029.9,028.5,000.0,038.5,031.4,10.8,0000.0,0002.79,0015.07,0001.49
2023-10-14 00:52:00,SystemResetWarning,0834.8,4.99,000.00,029.9,028.5,000.0,038.5,031.4,10.8,0000.0,0002.77,0015.42,0001.49
2023-10-14 00:53:00,SystemResetWarning,0834.9,5.00,000.00,029.9,028.5,000.0,038.5,031.4,10.7,0000.0,0002.76,0014.90,0001.50
2023-10-14 00:54:00,SystemResetWarning,0835.3,4.98,000.00,029.9,028.5,000.0,038.5,031.4,10.7,0000.0,0002.80,0014.69,0001.51
2023-10-14 00:55:00,SystemResetWarning,0835.4,5.01,000.00,029.9,028.5,000.0,038.5,031.4,10.7,0000.0,0002.74,0015.05,0001.53
2023-10-14 00:56:00,SystemResetWarning,0835.0,5.00,000.00,029.9,028.5,000.0,038.4,031.4,10.6,0000.0,0002.66,0015.07,0001.55
2023-10-14 00:57:00,SystemResetWarning,0834.9,5.00,000.00,029.9,028.5,000.0,038.4,031.4,10.6,0000.0,0002.63,0015.55,0001.57
2023-10-14 00:58:00,SystemResetWarning,0835.0,5.00,000.00,029.9,028.5,000.0,038.4,031.4,10.6,0000.0,0002.60,0014.83,0001.60
2023-10-14 00:59:00,SystemResetWarning,0835.0,5.00,000.00,029.9,028.5,000.0,038.4,031.4,10.6,0000.0,0002.46,0013.98,0001.61
